Location: Krakow
(50.0830°N, 19.9170°E)
Time: 16:41:47
(UTC+01:00)

Transit 2A Rocket - Pass Details

Date: 16 December 2023
Orbit: 590 x 905 km, 66.7° (Epoch: 03 March)

Event Time Altitude Azimuth Distance (km) Brightness Sun altitude
Rises 19:50:24 0° 252° (WSW) 2,926 8.7 -39.0°
Reaches altitude 10° 19:53:03 10° 266° (W) 1,983 7.8 -39.5°
Enters shadow 19:53:14 11° 267° (W) 1,928 7.7 -39.5°
